Regional Weather Roundup
Issued by NWS

Home | Current Version | Previous Version | Graphics & Text | Print | Product List | Glossary On
Versions: 1 2 3 4 5 6 7 8 9 10 11 12 13 14 15 16 17 18 19 20 21 22 23 24 25 26 27 28 29 30 31 32 33 34 35 36 37 38 39 40 41 42 43 44 45 46 47 48 49 50
000
ASUS45 KTFX 250019
RWRMT
MONTANA HOURLY WEATHER ROUNDUP
NATIONAL WEATHER SERVICE GREAT FALLS MT
619 PM MDT FRI OCT 24 2014

NOTE: "FAIR" INDICATES FEW OR NO CLOUDS BELOW 12000 FEET WITH NO
SIGNIFICANT WEATHER AND/OR OBSTRUCTIONS TO VISIBILITY.

* THESE STATIONS ARE NOT UNDER NWS QUALITY CONTROL. THEY DO NOT
   REPORT WEATHER SUCH AS PRECIPITATION OR FOG.

MTZ001>007-043-250100-
WEST OF THE DIVIDE
CITY           SKY/WX    TMP DP  RH WIND       PRES   REMARKS
KALISPELL      CLOUDY    50  39  66 CALM      30.09S
MISSOULA       LGT RAIN  48  45  89 S5        30.11S
BUTTE          LGT RAIN  46  39  77 CALM      30.12S
MULLAN PASS    CLOUDY    37  36  96 SE5       30.08F WCI  33
* ESSEX        N/A       45  41  86 N/A        N/A
* LINCOLN      N/A       49  36  61 SW4G12     N/A
* LOOKOUT PASS N/A       43  38  83 S4         N/A
* POLSON       N/A       49  37  63 SE1        N/A
* RONAN APT    CLOUDY    54  39  57 N/A        N/A
* SEELEY LAKE  N/A       49  37  63 S1         N/A
* THOMP F APT  CLOUDY    60  28  30 S11G20     N/A
$$

MTZ008-052>055-250100-
SOUTHWEST MONTANA
CITY           SKY/WX    TMP DP  RH WIND       PRES   REMARKS
BOZEMAN        CLOUDY    48  43  83 CALM      30.09F
DILLON         CLOUDY    48  43  83 N5        30.09S
W YELLOWSTONE  CLEAR     54  28  37 SW7       30.16R
* THREE FORKS  CLOUDY    48  48 100 N/A        N/A
* BOULDER HILL N/A       46  38  74 S6         N/A
* MONIDA PASS  N/A       55  28  35 S13G20     N/A
* RAYNOLDS PAS N/A       57  40  53 S16G21     N/A
* WHITEHALL    N/A       50  43  77 NE1        N/A
* WISE RIVER   N/A       44  40  86 SW6        N/A
$$

MTZ009>010-012-014-046-048-049-054-250100-
EAST SLOPES AND CENTRAL MONTANA
CITY           SKY/WX    TMP DP  RH WIND       PRES   REMARKS
CUT BANK       CLOUDY    48  30  50 W18       30.05R
GREAT FALLS    CLOUDY    54  34  47 SW12      30.04S
HELENA         CLOUDY    54  41  62 SE8       30.08S
MALMSTROM AFB  CLOUDY    54  36  51 SW14      30.05S
* CONRAD       CLOUDY    52  36  55 N/A        N/A
* DEARBORN     N/A       56  35  45 S11G16     N/A
* EAST GLACIER N/A       43  29  58 W19G24     N/A
* MONARCH      N/A       47  30  52 SW3        N/A
* PENDROY      N/A       48  31  52 E8         N/A
* ROGERS PASS  N/A       44  32  63 SE14G22    N/A
* SAINT MARY   N/A       44  29  56 S9G18      N/A
* SWEET GRASS  N/A       50  25  38 NW17       N/A
* WHITE SULPH  N/A       49  39  69 S11G16     N/A
$$

MTZ011-013-016-021-035-040-045-047-050-051-250100-
NORTH CENTRAL MONTANA
CITY           SKY/WX    TMP DP  RH WIND       PRES   REMARKS
HAVRE          MOCLDY    54  28  37 W14       30.02R
LEWISTOWN      CLOUDY    54  37  53 CALM      30.06F
* CHINOOK      PTCLDY    54  30  40 W5        30.03R
* FORT BENTON  CLOUDY    54  30  40 CALM      30.06R
* CHESTER      N/A       53  31  43 W4         N/A
* DENTON       N/A       55  32  42 SW1        N/A
* GEYSER       N/A       51  33  50 W1         N/A
* JUDITH GAP   N/A       51  40  66 S9         N/A
* LOMA         N/A       54  33  45 N7         N/A
$$

MTZ017>020-022>027-061-062-250100-
NORTHEAST MONTANA
CITY           SKY/WX    TMP DP  RH WIND       PRES   REMARKS
GLASGOW        PTCLDY    54  27  35 NW12      30.02R
GLENDIVE       MOCLDY    46  30  54 W9        30.06R
JORDAN         MOCLDY    50  32  50 NW5       30.05R
SIDNEY         MOCLDY    55  27  34 W9        30.04R
WOLF POINT     PTCLDY    55  28  35 W12       30.01R
* BEAVER HILL  N/A       53  28  38 W6         N/A
* CIRCLE       N/A       56  31  39 W4         N/A
* LINDSAY DVD  N/A       51  30  45 W8         N/A
* NAVAJO       N/A       50  26  39 W11        N/A
$$

MTZ028>042-056>058-250100-
SOUTHCENTRAL AND SOUTHEAST MONTANA
CITY           SKY/WX    TMP DP  RH WIND       PRES   REMARKS
BAKER          CLOUDY    54  30  40 SW8       30.06S
BILLINGS       CLOUDY    55  37  51 NE5       30.08R
LIVINGSTON     CLOUDY    54  39  57 SW10      30.08S
MILES CITY     CLOUDY    57  32  39 CALM      30.06S
* LAUREL APT   CLOUDY    57  34  42 N/A        N/A
* ROUNDUP APT  CLOUDY    55  37  51 N/A        N/A
* ALZADA       N/A       57  32  39 NW6        N/A
* HYSHAM       N/A       54  34  47 E4         N/A
* LAME DEER    N/A       50  29  44 NE7        N/A
* REED POINT   N/A       55  41  59 W4         N/A
* ROSCOE HILL  N/A       52  31  45 N1         N/A
$$

REGIONAL REPORTS...DAKOTAS
CITY           SKY/WX    TMP DP  RH WIND       PRES   REMARKS
WILLISTON      MOCLDY    52  27  38 W6        29.98R
DICKINSON      CLOUDY    50  28  43 SW10      30.00S
BEACH          N/A       48  28  46 NW9       30.05R
CROSBY         CLEAR     50  28  43 W12       29.95R
TIOGA          CLEAR     46  28  50 W10       29.99R
BISMARCK       MOCLDY    63  36  37 W10       29.97R
GRAND FORKS    PTCLDY    63  32  31 W12G20    29.80R
FARGO          MOCLDY    66  37  34 W16       29.84R
BUFFALO SD     MOCLDY    57  28  33 NW9       30.01R
RAPID CITY     CLEAR     57  39  51 N8        30.04S
$$

REGIONAL REPORTS...WYOMING/IDAHO/WASHINGTON
CITY           SKY/WX    TMP DP  RH WIND       PRES   REMARKS
GILLETTE       CLEAR     55  34  45 NE8       30.07R
SHERIDAN       PTCLDY    55  34  45 N8        30.07R
CODY           CLEAR     55  37  51 NE10      30.08R
YELLOWSTONE LA PTCLDY    52  19  27 VRB3      30.25R
SALMON         CLOUDY    48  45  89 CALM      30.06F
MULLAN PASS    CLOUDY    37  36  96 SE5       30.08S WCI  33
SAND POINT     CLOUDY    50  41  71 NE5       30.08S
SPOKANE        CLOUDY    52  43  72 NE8       30.04F
$$

REGIONAL REPORTS...ALBERTA
CITY           SKY/WX    TMP DP  RH WIND       PRES   REMARKS
CALGARY        MOCLDY    48  12  23 W18G28    29.96R
LETHBRIDGE     MOCLDY    50  25  38 W20G28    30.02R
MEDICINE HAT   MOCLDY    50  25  38 SW8       29.98R
EDMONTON       PTCLDY    46  21  37 NW6       29.90R
WATERTON GATE  N/A       45  27  49 SW8        N/A
CARDSTON       N/A       46  28  50 W5         N/A
MILK RIVER     N/A       50  28  43 NW14       N/A
$$

REGIONAL REPORTS...SASKATCHEWAN
CITY           SKY/WX    TMP DP  RH WIND       PRES   REMARKS
SWIFT CURRENT  CLEAR     43  30  60 NW8       29.96R
MOOSE JAW      FAIR      48  34  59 W9        29.94R
REGINA         FAIR      48  34  59 W16       29.91R
VAL MARIE      N/A       46  27  48 W8         N/A
ASSINIBOIA     N/A       45  27  49 W8         N/A
CORONACH       N/A       45  25  45 W8         N/A

$$




USA.gov is the U.S. government's official web portal to all federal, state and local government web resources and services.